Date String (YYYY-MM-DD hh:mm:ss) UTC,Instrument flags,Ambient pressure (hPa),Sample flow (lpm),Bypass flow (lpm),Sample temperature (°C),Ambient temperature (°C),ASC tube jacket temperature (°C),LED temperature (°C),Box temperature (°C),Sample RH (%),Span deviation,Mass concentration (μg/m³),Mass concentration (μg/m³),Mass concentration (μg/m³)
DateTimeUTC,F1_M11,P_M11,Q1_M11,Q2_M11,T1_M11,T2_M11,T3_M11,T4_M11,T5_M11,U1_M11,ZSPAN_M11,X0_M11,X2_M11,X1_M11
2022-03-07 17:00:00,,0829.5,5.01,0.00,23.1,22.3,00.0,32.0,24.9,07.8,0001.9,0010.01,0007.31,0007.04
2022-03-07 17:01:00,,0829.5,5.00,0.00,23.1,22.3,00.0,32.0,24.9,08.0,0002.5,0009.95,0007.29,0007.04
2022-03-07 17:02:00,,0829.5,4.99,0.00,23.1,22.3,00.0,32.0,24.9,08.1,0002.4,0009.91,0007.27,0007.03
2022-03-07 17:03:00,,0829.5,5.01,0.00,23.1,22.3,00.0,32.0,24.9,08.2,0002.5,0009.92,0007.28,0007.04
2022-03-07 17:04:00,,0829.5,5.00,0.00,23.1,22.3,00.0,32.0,24.9,08.1,0002.9,0009.84,0007.29,0007.06
2022-03-07 17:05:00,,0829.5,5.00,0.00,23.1,22.3,00.0,32.0,24.9,08.0,0002.9,0009.82,0007.31,0007.08
2022-03-07 17:06:00,,0829.5,5.00,0.00,23.1,22.4,00.0,32.0,24.9,08.2,0002.7,0009.88,0007.33,0007.10
2022-03-07 17:07:00,,0829.5,5.00,0.00,23.1,22.4,00.0,32.0,24.9,08.2,0002.4,0009.90,0007.35,0007.10
2022-03-07 17:08:00,,0829.4,4.99,0.00,23.1,22.4,00.0,32.0,24.9,08.5,0002.1,0009.89,0007.39,0007.12
2022-03-07 17:09:00,,0829.5,5.01,0.00,23.1,22.4,00.0,32.1,24.9,08.2,0001.3,0010.39,0007.43,0007.12
2022-03-07 17:10:00,,0829.4,4.98,0.00,23.2,22.4,00.0,32.1,25.0,07.8,0001.2,0010.46,0007.45,0007.12
2022-03-07 17:11:00,,0829.4,5.02,0.00,23.2,22.4,00.0,32.1,25.0,08.0,0001.1,0010.77,0007.43,0007.12
2022-03-07 17:12:00,,0829.4,4.99,0.00,23.2,22.4,00.0,32.1,25.0,08.3,0000.8,0011.12,0007.42,0007.12
2022-03-07 17:13:00,,0829.4,5.01,0.00,23.2,22.4,00.0,32.1,25.0,07.9,0000.9,0011.24,0007.45,0007.12
2022-03-07 17:14:00,,0829.4,5.01,0.00,23.2,22.4,00.0,32.1,25.0,07.6,0001.1,0011.21,0007.41,0007.09
2022-03-07 17:15:00,,0829.2,5.00,0.00,23.2,22.4,00.0,32.1,25.0,07.7,0000.6,0011.23,0007.38,0007.04
2022-03-07 17:16:00,,0829.5,4.99,0.00,23.2,22.4,00.0,32.1,25.0,07.9,0000.4,0011.30,0007.37,0007.01
2022-03-07 17:17:00,,0829.3,5.00,0.00,23.2,22.5,00.0,32.1,25.0,07.8,0000.3,0011.27,0007.36,0006.98
2022-03-07 17:18:00,,0829.2,5.00,0.00,23.2,22.5,00.0,32.1,25.1,08.0,0000.4,0011.89,0007.31,0006.94
2022-03-07 17:19:00,,0829.2,5.00,0.00,23.3,22.5,00.0,32.1,25.1,07.9,0000.6,0012.11,0007.23,0006.87
2022-03-07 17:20:00,,0829.2,4.99,0.00,23.3,22.5,00.0,32.1,25.1,07.8,0001.0,0011.52,0007.16,0006.83
2022-03-07 17:21:00,,0829.2,5.00,0.00,23.3,22.5,00.0,32.2,25.1,07.7,0001.2,0011.21,0007.11,0006.80
2022-03-07 17:22:00,,0829.2,5.00,0.00,23.3,22.5,00.0,32.2,25.1,07.7,0001.3,0010.85,0007.09,0006.76
2022-03-07 17:23:00,,0829.2,5.02,0.00,23.3,22.5,00.0,32.2,25.1,07.9,0001.3,0010.42,0007.06,0006.73
2022-03-07 17:24:00,,0829.2,5.00,0.00,23.3,22.5,00.0,32.2,25.1,08.0,0001.4,0010.35,0007.02,0006.71
2022-03-07 17:25:00,,0829.2,5.00,0.00,23.3,22.5,00.0,32.2,25.1,08.2,0001.6,0010.39,0007.03,0006.70
2022-03-07 17:26:00,,0829.2,5.00,0.00,23.3,22.5,00.0,32.2,25.1,08.1,0001.6,0010.42,0007.03,0006.71
2022-03-07 17:27:00,,0829.3,5.00,0.00,23.3,22.5,00.0,32.2,25.1,08.0,0001.0,0010.30,0006.96,0006.67
2022-03-07 17:28:00,,0829.4,5.00,0.00,23.3,22.5,00.0,32.2,25.1,07.8,0000.9,0010.32,0006.88,0006.61
2022-03-07 17:29:00,,0829.2,4.99,0.00,23.3,22.5,00.0,32.2,25.1,07.9,0001.9,0009.74,0006.83,0006.57
2022-03-07 17:30:00,,0829.2,5.00,0.00,23.3,22.5,00.0,32.2,25.1,07.7,0001.0,0009.13,0006.76,0006.52
2022-03-07 17:31:00,,0829.2,5.01,0.00,23.3,22.5,00.0,32.2,25.1,07.4,0001.6,0009.19,0006.66,0006.44
2022-03-07 17:32:00,,0829.3,4.99,0.00,23.3,22.5,00.0,32.2,25.1,07.9,0000.9,0009.15,0006.58,0006.37
2022-03-07 17:33:00,,0829.2,5.01,0.00,23.4,22.6,00.0,32.2,25.2,07.2,0002.0,0009.02,0006.45,0006.24
2022-03-07 17:34:00,,0829.3,5.00,0.00,23.4,22.6,00.0,32.3,25.2,07.4,0001.2,0008.94,0006.35,0006.12
2022-03-07 17:35:00,,0829.2,4.99,0.00,23.4,22.6,00.0,32.3,25.2,07.9,0001.0,0009.01,0006.32,0006.08
2022-03-07 17:36:00,,0829.2,5.00,0.00,23.4,22.6,00.0,32.3,25.2,07.9,0000.6,0008.95,0006.28,0006.06
2022-03-07 17:37:00,,0829.2,5.02,0.00,23.4,22.5,00.0,32.3,25.1,07.5,0000.7,0008.86,0006.21,0005.97
2022-03-07 17:38:00,,0829.2,4.99,0.00,23.3,22.5,00.0,32.3,25.1,07.8,0000.7,0008.70,0006.13,0005.89
2022-03-07 17:39:00,,0829.2,5.00,0.00,23.3,22.4,00.0,32.3,25.0,07.6,0000.6,0008.56,0006.10,0005.87
2022-03-07 17:40:00,,0829.2,5.01,0.00,23.2,22.4,00.0,32.3,25.0,07.8,0000.4,0008.48,0006.06,0005.82
2022-03-07 17:41:00,,0829.2,5.00,0.00,23.2,22.3,00.0,32.3,25.0,08.0,0000.5,0008.43,0006.01,0005.77
2022-03-07 17:42:00,,0829.2,4.99,0.00,23.2,22.3,00.0,32.2,24.9,07.1,0000.3,0008.16,0005.95,0005.72
2022-03-07 17:43:00,,0829.2,5.01,0.00,23.2,22.3,00.0,32.2,24.9,07.0,0000.0,0008.02,0005.85,0005.63
2022-03-07 17:44:00,,0829.2,5.00,0.00,23.1,22.2,00.0,32.2,24.9,07.3,0000.2,0008.01,0005.85,0005.63
2022-03-07 17:45:00,,0829.2,5.01,0.00,23.1,22.1,00.0,32.2,24.8,07.2,0000.5,0007.99,0005.86,0005.64
2022-03-07 17:46:00,,0829.1,4.99,0.00,23.0,22.0,00.0,32.2,24.7,07.1,0000.6,0007.87,0005.77,0005.55
2022-03-07 17:47:00,,0829.1,5.00,0.00,23.0,22.0,00.0,32.1,24.7,07.1,0000.4,0007.73,0005.65,0005.43
2022-03-07 17:48:00,,0829.1,5.00,0.00,23.0,22.0,00.0,32.1,24.7,07.2,0000.1,0007.60,0005.55,0005.35
2022-03-07 17:49:00,,0829.0,4.99,0.00,22.9,22.0,00.0,32.1,24.7,07.0,0000.1,0007.55,0005.50,0005.29
2022-03-07 17:50:00,,0829.1,5.01,0.00,22.9,22.0,00.0,32.1,24.7,06.8,0000.4,0007.44,0005.37,0005.18
2022-03-07 17:51:00,,0829.1,5.00,0.00,22.9,22.0,00.0,32.0,24.7,07.0,0000.5,0007.27,0005.24,0005.07
2022-03-07 17:52:00,,0829.0,4.99,0.00,22.9,22.0,00.0,32.0,24.6,07.8,0000.7,0007.13,0005.17,0004.99
2022-03-07 17:53:00,,0829.1,5.01,0.00,22.9,22.0,00.0,32.0,24.6,07.5,0001.0,0007.18,0005.15,0004.98
2022-03-07 17:54:00,,0829.1,5.00,0.00,22.9,22.0,00.0,32.0,24.6,07.0,0001.3,0007.41,0005.13,0004.96
2022-03-07 17:55:00,,0829.1,5.00,0.00,22.9,22.0,00.0,32.0,24.5,07.1,0001.0,0007.26,0005.03,0004.87
2022-03-07 17:56:00,,0829.1,5.00,0.00,22.8,22.0,00.0,32.0,24.5,07.0,0001.2,0007.11,0004.96,0004.81
2022-03-07 17:57:00,,0829.1,5.00,0.00,22.8,22.0,00.0,31.9,24.5,07.1,0001.6,0006.97,0004.92,0004.79
2022-03-07 17:58:00,,0829.1,4.99,0.00,22.8,21.9,00.0,31.9,24.5,07.9,0001.3,0006.98,0004.92,0004.79
2022-03-07 17:59:00,,0829.0,5.01,0.00,22.7,21.9,00.0,31.9,24.5,08.1,0001.5,0006.97,0004.92,0004.79
